Cloud_Cover
87 76 38 37 12 5 4 5 8 7 36 49 48 83 88 96 97 96 100 100 99 98 91 100 91 69 31 3 5 5 54 80 50 46 99 100 76 22 82 91 93 99 72
100 100 100 100 90 66 75 66 80 75 94 75 91 100 100 100 100 100 100 100 97 98 65 63 85 100 100 99 3 5 5 31 30 5 62 100 100 100 78 7 23 16 22
100 100 100 100 90 85 94 100 100 100 100 100 100 100 100 100 100 100 90 100 100 100 100 93 53 14 96 12 60 20 2 18 13 1 2 12 18 71 100 100 100 96 21
100 100 100 100 100 100 100 100 100 100 100 100 100 100 100 100 100 100 100 100 100 100 100 100 100 100 100 100 95 75 90 5 5 54 4 16 6 2 2 36 78 100 42
100 100 100 100 100 100 100 100 100 100 100 100 100 100 100 100 100 100 100 95 70 100 100 100 100 96 100 100 92 87 39 97 77 99 92 20 0 0 2 2 5 5 0
100 100 100 100 100 100 100 100 100 100 100 100 100 100 100 100 100 100 100 100 91 92 100 100 100 100 100 100 100 100 100 98 64 5 5 5 5 5 5 5 5 6 46
100 100 100 100 100 100 100 100 100 100 100 100 100 100 100 100 100 100 100 100 100 100 100 100 100 100 100 100 73 6 4 3 5 5 5 5 5 22 5 21 94 90 74
99 100 100 100 100 100 100 100 100 100 100 100 100 100 100 100 100 99 100 82 100 100 79 100 100 100 75 12 5 5 5 5 5 5 5 5 5 3 43 70 83 90 100
83 95 96 100 100 100 100 100 100 100 100 100 100 92 100 100 100 100 100 100 52 66 31 98 100 100 57 5 5 0 5 5 5 5 5 3 2 61 18 95 77 100 98
100 98 79 100 100 100 100 100 100 100 100 100 100 100 100 81 92 89 86 54 48 91 64 100 88 100 68 5 4 0 0 5 5 3 2 12 43 8 61 100 100 100 100
88 89 99 100 100 100 100 100 100 100 94 100 98 100 96 47 64 42 6 30 94 96 70 92 100 16 5 4 0 0 2 0 0 5 62 86 63 65 100 100 100 100 100
88 99 99 100 100 100 100 100 100 100 98 100 100 100 100 100 90 18 83 100 54 29 5 75 9 5 2 0 0 1 0 0 5 47 97 95 58 45 91 99 100 100 94
100 100 100 100 100 100 100 100 100 100 100 100 100 100 100 100 100 90 84 17 78 52 8 5 1 0 0 1 5 5 5 5 69 98 64 65 75 93 97 100 100 72 91
100 100 100 100 100 100 100 100 100 100 100 100 64 65 97 100 100 100 100 100 100 100 61 5 5 0 1 21 11 32 58 18 75 78 93 79 100 100 100 100 91 94 100
100 100 100 100 100 100 100 100 100 100 92 100 96 63 88 81 96 90 100 98 83 97 6 4 0 8 49 55 29 35 11 56 61 71 88 100 100 100 88 97 99 100 100
100 100 100 100 100 100 70 100 100 64 67 26 10 41 86 28 7 1 2 1 4 0 1 1 5 41 65 60 11 25 37 67 64 93 100 100 100 96 100 100 100 100 100
100 32 64 9 6 6 5 29 35 61 5 2 5 0 3 19 0 0 0 1 0 0 2 6 58 59 60 67 47 20 40 70 73 100 100 100 100 100 100 100 100 100 100
12 12 4 88 100 73 27 3 36 94 54 70 54 22 4 0 0 0 3 5 5 68 27 74 92 89 94 97 74 30 44 66 100 100 100 100 100 100 100 100 100 100 100
58 85 91 53 24 19 4 61 50 98 86 24 5 18 0 0 1 3 4 3 12 93 100 100 100 100 100 100 89 6 30 77 100 100 100 100 100 100 100 100 100 100 100
9 6 38 0 5 33 33 50 16 86 5 5 5 11 3 4 3 5 51 43 98 100 100 100 100 100 100 100 98 50 44 100 100 100 100 100 100 100 100 100 100 100 100
7 30 47 5 5 5 5 29 97 5 6 5 17 13 5 3 5 5 89 100 100 100 83 89 100 100 100 100 88 14 18 100 100 100 100 100 100 100 100 100 100 100 100
5 5 11 16 45 95 100 95 84 100 39 89 74 100 78 6 12 71 100 91 85 96 100 100 100 100 100 100 84 31 83 100 100 100 100 100 100 100 100 100 100 100 100
77 16 7 87 92 95 94 96 71 100 100 100 100 100 86 95 98 100 95 100 94 86 89 98 100 100 100 100 80 22 99 100 100 100 100 86 97 100 100 100 100 100 100
5 9 26 71 100 100 100 100 99 100 100 100 100 100 100 100 100 100 100 100 96 62 84 43 85 100 100 97 67 9 100 100 100 100 100 99 95 100 100 100 100 100 100
5 24 89 98 98 100 100 100 100 100 100 100 100 100 100 100 100 100 100 100 100 29 45 53 72 100 100 84 40 44 100 100 100 100 100 93 99 100 100 100 100 100 100
36 39 96 100 85 79 100 100 100 100 100 100 100 100 100 100 100 100 100 100 99 94 92 82 100 82 96 68 39 9 100 100 95 98 100 100 100 100 100 100 100 100 100